Regional Weather Roundup
Issued by NWS Boston, MA

Home | Current Version | Previous Version | Text Only | Print | Product List | Glossary On
Versions: 1 2 3 4 5 6 7 8 9 10 11 12 13 14 15 16 17 18 19 20 21 22 23 24 25 26 27
000
ASUS41 KBOX 300710
RWRBOX

REGIONAL WEATHER ROUNDUP
NATIONAL WEATHER SERVICE TAUNTON MA
300 AM EDT TUE AUG 30 2016

NOTE:  "FAIR" INDICATES FEW OR NO CLOUDS BELOW 12,000 FEET WITH NO
SIGNIFICANT WEATHER AND/OR OBSTRUCTIONS TO VISIBILITY.

MAZALL-300800-
EASTERN MASSACHUSETTS

CITY           SKY/WX    TMP DP  RH WIND       PRES   REMARKS
BOSTON         CLEAR     67  55  65 N7        30.15S
BEVERLY        CLEAR     60  55  83 NW6       30.15R
LAWRENCE       CLEAR     61  55  81 CALM      30.18R
BEDFORD        CLEAR     54  50  86 CALM      30.16R
BLUE HILL        N/A     61  53  75 N12       30.15F
NORWOOD        CLEAR     54  51  90 CALM      30.15F
MARSHFIELD     CLEAR     63  55  77 CALM      30.14F
PLYMOUTH       CLEAR     61  54  77 CALM      30.15S
TAUNTON        CLEAR     53  51  93 CALM      30.15S
NEW BEDFORD    PTCLDY    57  54  89 CALM      30.14S
$$

MAZALL-300800-
CAPE COD AND THE ISLANDS

CITY           SKY/WX    TMP DP  RH WIND       PRES   REMARKS
FALMOUTH         N/A     59  57  94 CALM        N/A
HYANNIS        CLEAR     61  58  90 N3        30.13R
CHATHAM        CLEAR     64  59  83 CALM      30.15R
PROVINCETOWN   CLEAR     67  60  78 N7        30.15R
NANTUCKET      CLEAR     63  58  83 N7        30.13S
MARTHAS VNYRD  CLEAR     57  54  89 NW3       30.14S
$$

MAZALL-300800-
CENTRAL AND WESTERN MASSACHUSETTS

CITY           SKY/WX    TMP DP  RH WIND       PRES   REMARKS
WORCESTER      CLEAR     62  51  67 N8        30.18F
FITCHBURG      CLEAR     58  53  84 N5        30.19R
ORANGE         CLEAR     52  51  97 CALM      30.19S
SPRINGFIELD    NOT AVBL
WESTFIELD      CLEAR     57  55  93 NE3       30.18S
NORTH ADAMS    CLEAR     53  51  93 CALM      30.19F
PITTSFIELD     CLEAR     54  52  93 CALM      30.19R
$$

RIZALL-300800-
RHODE ISLAND

CITY           SKY/WX    TMP DP  RH WIND       PRES   REMARKS
PROVIDENCE     CLEAR     66  53  63 N5        30.16S
NEWPORT        CLEAR     65  56  72 N5        30.16R
BLOCK ISLAND   CLEAR     69  60  73 NE7       30.15F
SMITHFIELD     CLEAR     59  54  83 CALM      30.17S
WESTERLY       CLEAR     62  55  77 CALM      30.16S
$$

CTZALL-300800-
CONNECTICUT

CITY           SKY/WX    TMP DP  RH WIND       PRES   REMARKS
BRADLEY INTL   CLEAR     60  54  80 N7        30.18S
HARTFORD       CLEAR     67  55  65 N6        30.17S
BRIDGEPORT     CLEAR     71  55  56 NE6       30.16R
DANBURY        CLEAR     59  55  87 CALM      30.18S
GROTON         CLEAR     63  57  81 N6        30.15S
NEW HAVEN      CLEAR     63  55  75 N7        30.16S
CHESTER        FAIR      64  55  72 CALM      30.18R
MERIDEN        CLEAR     60  55  83 CALM      30.17S
WILLIMANTIC    CLEAR     60  57  89 CALM      30.18R
OXFORD           N/A     64  52  63 NE7       30.18F
$$

MEZ002-015-021-024-NHZ003-005-008-011-012-014-VTZ005-008-300800-
NORTHERN NEW ENGLAND

CITY           SKY/WX    TMP DP  RH WIND       PRES   REMARKS
PORTLAND ME    CLEAR     59  54  83 W6        30.14R
BANGOR ME      PTCLDY    57  53  86 CALM      30.08F
CONCORD NH     CLEAR     53  50  89 E3        30.18S
MANCHESTER NH  CLEAR     62  53  72 CALM      30.16S
NASHUA NH      CLEAR     60  54  80 W5        30.18R
PORTSMOUTH NH  CLEAR     59  55  86 W2        30.15R
JAFFREY NH     CLEAR     52  49  89 CALM      30.21S
KEENE NH       CLEAR     52  51  97 NW3       30.20F
BURLINGTON VT  CLOUDY    58  54  86 CALM      30.18R
MT. WASHINGTON PTCLDY    43  37  81 NW14        N/A
$$

NYZ052-076-300800-
EASTERN NEW YORK

CITY           SKY/WX    TMP DP  RH WIND       PRES   REMARKS
ALBANY         PTCLDY    59  54  83 CALM      30.18S
NEW YORK CITY  CLEAR     75  60  59 NE12      30.13S
$$

ANZALL-300800-
MARINE OBSERVATIONS

STATION/POSITION TIME  TEMP    WIND        PRES    VSBY  WAVE
                       AIR SEA DIR/SP/G                  HT/PER
                 (UTC) (F)     (DEG/KT/KT) (MB)    (MI)  (FT/S)
BOSTON BUOY      0650   67 69  320/ 10/ 10 1020.9R         2/12
BUZZARDS BAY     0600   71      20/  9/ 10 1021.0R
NANTUCKET SOUND  0650   71 73   20/ 12/ 16 1020.1R         1/ 3
MASS BAY-STELLWA 0604   67 66  330/  8/ 10 1020.2R  1 7/8  2/12
ISLE OF SHOALS   0700   62     290/  8/  9 1020.6R
S OF BLOCK IS    0625      75                N/A           5/11
$$

......................KEY.........................
  SKY/WX - SKY CONDITION/PRESENT WEATHER
  TMP    - TEMPERATURE IN FAHRENHEIT
  DWPT   - DEWPOINT IN FAHRENHEIT
  RH     - RELATIVE HUMIDITY IN PERCENT
  WIND   - DIRECTION AND SPEED IN MPH
  PRES   - MEAN SEA LEVEL PRESSURE IN INCHES OF HG
  WCI    - WIND CHILL INDEX
  VSB    - VISIBILITY IN MILES
  HX     - HEAT INDEX
  TC     - TEMPERATURE IN CELSIUS
  VRB    - VARIABLE WIND DIRECTION
  N/A    - NOT AVAILABLE




USA.gov is the U.S. government's official web portal to all federal, state and local government web resources and services.